| time (UTC) | temp C | wind direction | speed KPH | gust KPH | rain 1hr cm | rain 24hr cm | rain mn cm | humidity % | barometer mb |
| 20260504081549 | 7 | 0 | 0.0 | 1.6 | 0.00 | 0.00 | 0.00 | 74 | 1014.5 |
| 20260504044546 | 9 | 239 | 0.0 | 6.4 | 0.00 | 0.00 | 0.00 | 59 | 1014.3 |
| 20260504043053 | 8 | 0 | 0.0 | 4.8 | 0.00 | 0.00 | 0.00 | 58 | 1014.1 |
| 20260504041546 | 8 | 0 | 0.0 | 8.0 | 0.00 | 0.00 | 0.00 | 58 | 1014.0 |
| 20260504040049 | 8 | 244 | 0.0 | 6.4 | 0.00 | 0.00 | 0.00 | 60 | 1014.0 |
| 20260504034553 | 8 | 0 | 1.6 | 4.8 | 0.00 | 0.00 | 0.00 | 60 | 1013.8 |
| 20260504033046 | 8 | 269 | 0.0 | 6.4 | 0.00 | 0.00 | 0.00 | 62 | 1013.8 |
| 20260504031546 | 8 | 250 | 0.0 | 4.8 | 0.00 | 0.00 | 0.00 | 64 | 1013.7 |
| 20260504030045 | 8 | 260 | 0.0 | 3.2 | 0.00 | 0.00 | 0.00 | 63 | 1013.8 |
| 20260504024551 | 8 | 0 | 0.0 | 4.8 | 0.00 | 0.00 | 0.00 | 63 | 1013.8 |
| 20260504023045 | 8 | 0 | 0.0 | 3.2 | 0.00 | 0.00 | 0.00 | 62 | 1013.8 |
| 20260504021551 | 8 | 0 | 1.6 | 4.8 | 0.00 | 0.00 | 0.00 | 63 | 1013.7 |
| 20260504020044 | 8 | 273 | 0.0 | 4.8 | 0.00 | 0.00 | 0.00 | 63 | 1013.7 |
| 20260504014548 | 8 | 0 | 0.0 | 6.4 | 0.00 | 0.00 | 0.00 | 62 | 1013.6 |
| 20260504013108 | 9 | 0 | 0.0 | 3.2 | 0.00 | 0.00 | 0.00 | 61 | 1013.5 |
| 20260504011545 | 10 | 243 | 0.0 | 1.6 | 0.00 | 0.00 | 0.00 | 59 | 1013.4 |
| 20260504010046 | 10 | 0 | 0.0 | 1.6 | 0.00 | 0.00 | 0.00 | 57 | 1013.2 |
| 20260504004550 | 11 | 0 | 0.0 | 0.0 | 0.00 | 0.00 | 0.00 | 53 | 1013.0 |
| 20260504003045 | 12 | 0 | 0.0 | 0.0 | 0.00 | 0.00 | 0.00 | 50 | 1012.7 |
| 20260504001549 | 13 | 0 | 0.0 | 0.0 | 0.00 | 0.00 | 0.00 | 44 | 1012.5 |
| 20260504000042 | 13 | 0 | 0.0 | 4.8 | 0.00 | 0.00 | 0.00 | 41 | 1012.5 |
| 20260503234549 | 14 | 227 | 0.0 | 9.7 | 0.00 | 0.00 | 0.00 | 40 | 1012.4 |
| 20260503233046 | 14 | 321 | 3.2 | 9.7 | 0.00 | 0.00 | 0.00 | 38 | 1012.2 |
| 20260503231549 | 15 | 238 | 3.2 | 16.1 | 0.00 | 0.00 | 0.00 | 37 | 1012.2 |
| 20260503230045 | 15 | 294 | 3.2 | 20.9 | 0.00 | 0.00 | 0.00 | 37 | 1012.2 |
| 20260503224541 | 15 | 222 | 3.2 | 17.7 | 0.00 | 0.00 | 0.00 | 35 | 1012.2 |
| 20260503223046 | 15 | 178 | 3.2 | 20.9 | 0.00 | 0.00 | 0.00 | 36 | 1012.1 |
| 20260503221559 | 15 | 246 | 8.0 | 24.1 | 0.00 | 0.00 | 0.00 | 35 | 1012.2 |
| 20260503220055 | 15 | 338 | 6.4 | 22.5 | 0.00 | 0.00 | 0.00 | 34 | 1012.2 |
| 20260503214547 | 16 | 257 | 1.6 | 25.7 | 0.00 | 0.00 | 0.00 | 34 | 1012.1 |
| 20260503213050 | 16 | 281 | 4.8 | 20.9 | 0.00 | 0.00 | 0.00 | 35 | 1012.0 |
| 20260503211552 | 16 | 270 | 9.7 | 24.1 | 0.00 | 0.00 | 0.00 | 34 | 1011.9 |
| 20260503210050 | 16 | 288 | 6.4 | 20.9 | 0.00 | 0.00 | 0.00 | 35 | 1012.1 |
| 20260503204609 | 16 | 338 | 6.4 | 25.7 | 0.00 | 0.00 | 0.00 | 34 | 1012.2 |
| 20260503203049 | 16 | 282 | 11.3 | 27.4 | 0.00 | 0.00 | 0.00 | 33 | 1012.4 |
| 20260503201549 | 16 | 301 | 11.3 | 32.2 | 0.00 | 0.00 | 0.00 | 35 | 1012.4 |
| 20260503200050 | 16 | 240 | 11.3 | 24.1 | 0.00 | 0.00 | 0.00 | 35 | 1012.6 |
| 20260503194547 | 16 | 245 | 6.4 | 25.7 | 0.00 | 0.00 | 0.00 | 35 | 1012.5 |
| 20260503193048 | 16 | 265 | 8.0 | 22.5 | 0.00 | 0.00 | 0.00 | 35 | 1012.7 |
| 20260503191606 | 16 | 234 | 9.7 | 25.7 | 0.00 | 0.00 | 0.00 | 36 | 1012.9 |
| 20260503190042 | 16 | 246 | 6.4 | 25.7 | 0.00 | 0.00 | 0.00 | 34 | 1012.8 |
| 20260503184550 | 16 | 45 | 6.4 | 22.5 | 0.00 | 0.00 | 0.00 | 32 | 1012.9 |
| 20260503183046 | 17 | 242 | 4.8 | 17.7 | 0.00 | 0.00 | 0.00 | 34 | 1013.2 |
| 20260503181552 | 16 | 340 | 8.0 | 20.9 | 0.00 | 0.00 | 0.00 | 33 | 1013.2 |
| 20260503180055 | 16 | 253 | 4.8 | 24.1 | 0.00 | 0.00 | 0.00 | 39 | 1013.2 |
| 20260503174552 | 15 | 352 | 8.0 | 29.0 | 0.00 | 0.00 | 0.00 | 39 | 1013.4 |
| 20260503173044 | 15 | 342 | 4.8 | 24.1 | 0.00 | 0.00 | 0.00 | 41 | 1013.5 |
| 20260503171550 | 15 | 9 | 8.0 | 19.3 | 0.00 | 0.00 | 0.00 | 39 | 1013.6 |